User: anonymous   Login
Location: Lichtensteig
(47.3376°N, 9.0841°E)
Time: 14:33:44
(UTC+00:00)
Language:

NOSS 3-3 (A) - Orbit

View from above orbital plane
View from above orbital plane
View from above satellite
View from above satellite

Ground track
Ground track

The orbit data is extracted from the following two-line orbital elements,

1 28537U 05004A   21126.06590429 0.00000000  00000-0  00000-0 0    04
2 28537  63.4425 168.2493 0402396 357.9311   1.8921 13.40817754    08
Epoch (UTC): 06 May 2021 01:34:54
Eccentricity: 0.0402396
inclination: 63.4425°
perigee height: 805 km
apogee height: 1407 km
right ascension of ascending node: 168.2493°
argument of perigee: 357.9311°
revolutions per day: 13.40817754
mean anomaly at epoch: 1.8921°
orbit number at epoch: 0

The dashed part of the orbit path shows where the satellite is in the earth's shadow,  

DLR